Orbital Elements at Epoch 2459200.5 (2020-Dec-17.0) TDB
Reference: JPL 16 (heliocentric ecliptic J2000)
Element | Value | Uncertainty (1-sigma) | Units |
e | .1437268817257056 | 4.132e-08 | |
a | 2.645801304364074 | 1.6926e-08 | au |
q | 2.265528533222021 | 1.1345e-07 | au |
i | 10.97036011018687 | 7.265e-06 | deg |
node | 247.2525928041848 | 2.3061e-05 | deg |
peri | 266.2944530258872 | 3.5381e-05 | deg |
M | 291.2444257236557 | 2.8136e-05 | deg |
tp | 2459500.720040548262 (2021-Oct-13.22004055) | 0.00012381 | TDB |
period | 1571.933850235608 4.30 | 1.5084e-05 4.13e-08 | d yr |
n | .2290172706351744 | 2.1976e-09 | deg/d |
Q | 3.026074075506128 | 1.9358e-08 | au |
|
| | Orbit Determination Parameters
Additional Information
|